Location: Kavul?ru
(16.6288°N, 80.5832°E)
Time: 05:49:25
(UTC+00:00)

Cosmos 1975 Rocket - Pass Details

Date: 15 May 2026
Orbit: 596 x 627 km, 82.5° (Epoch: 6 June)

Event Time Altitude Azimuth Distance (km) Brightness Sun altitude
Rises 13:20:21 0° 358° (N) 2,836 6.8 -5.1°
Reaches altitude 10° 13:22:34 10° 360° (N) 1,930 5.9 -5.6°
Maximum altitude 13:26:49 74° 84° (E) 620 2.9 -6.5°
Drops below altitude 10° 13:31:03 10° 171° (S) 1,922 5.3 -7.5°
Sets 13:33:15 0° 173° (S) 2,823 6.1 -8.0°
